Weather History for KBJJ - May, 2014

Change the Weather History Date:

Sunday, May 11, 2014

  Actual Average Record
Temperature  
Mean Temperature 63 °F -  
Max Temperature 73 °F 67 °F 82 °F (2001)
Min Temperature 53 °F 45 °F 33 °F (1997)
Degree Days  
Heating Degree Days 2    
Growing Degree Days 13 (Base 50)    
Moisture  
Dew Point 55 °F    
Average Humidity 84    
Maximum Humidity 97    
Minimum Humidity 53    
Precipitation  
Precipitation 0.01 in - - ()
Sea Level Pressure  
Sea Level Pressure 30.08 in    
Wind  
Wind Speed 6 mph (SSW)    
Max Wind Speed 13 mph    
Max Gust Speed -    
Visibility 5 miles    
Events      
Averages and records for this station are not official NWS values.
T = Trace of Precipitation, MM = Missing Value Source: NWS Daily Summary

Daily Weather History Graph

Daily Weather History Graph

Search for Another Location

Airport or City:

Trip Planner

Search our weather history database for the weather conditions in past years. The results will help you decide how hot, cold, wet, or windy it might be!

Date:

Astronomy

May. 11, 2014 Rise Set
Actual Time 6:14 AM EDT 8:34 PM EDT
Civil Twilight 5:43 AM EDT 9:05 PM EDT
Nautical Twilight 5:05 AM EDT 9:43 PM EDT
Astronomical Twilight 4:23 AM EDT 10:25 PM EDT
Moon 5:27 PM EDT (5/11) 4:19 AM EDT (5/11)
Length of Visible Light 15h 21m
Length of Day
14h 20m
Waxing Gibbous, 89% of the Moon is Illuminated
May 11
Waxing Gibbous
May 14
Full
May 21
Last Quarter
May 28
New
Jun 5
First Quarter

Hourly Weather History & Observations

Time (EDT) Temp. Dew Point Humidity Pressure Visibility Wind Dir Wind Speed Gust Speed Precip Events Conditions
12:56 AM 53.1 °F 51.1 °F 93% 30.03 in 2.0 mi Calm Calm - N/A   Clear
1:06 AM 54.0 °F 52.0 °F 93% 30.03 in 1.8 mi SW 4.6 mph - N/A   Partly Cloudy
1:15 AM 54.0 °F 52.0 °F 93% 30.04 in 1.2 mi SW 6.9 mph - N/A   Mostly Cloudy
1:20 AM 55.0 °F 53.1 °F 93% 30.04 in 3.0 mi SW 10.4 mph - N/A   Mostly Cloudy
1:34 AM 55.9 °F 55.0 °F 97% 30.04 in 2.5 mi SW 8.1 mph - N/A   Overcast
1:56 AM 57.0 °F 55.0 °F 93% 30.04 in 2.5 mi WSW 9.2 mph - N/A   Overcast
2:09 AM 57.0 °F 55.0 °F 93% 30.04 in 3.0 mi WSW 8.1 mph - N/A   Overcast
2:56 AM 55.9 °F 54.0 °F 93% 30.04 in 4.0 mi WSW 9.2 mph - N/A   Overcast
3:38 AM 54.0 °F 53.1 °F 97% 30.06 in 2.5 mi WSW 5.8 mph - N/A   Overcast
3:46 AM 55.0 °F 53.1 °F 93% 30.06 in 3.0 mi WSW 6.9 mph - N/A   Overcast
3:56 AM 55.0 °F 53.1 °F 93% 30.06 in 3.0 mi WSW 6.9 mph - N/A   Mostly Cloudy
4:12 AM 54.0 °F 52.0 °F 93% 30.07 in 2.5 mi WSW 6.9 mph - N/A   Scattered Clouds
4:20 AM 54.0 °F 53.1 °F 97% 30.07 in 2.5 mi SW 3.5 mph - N/A   Mostly Cloudy
5:56 AM 55.0 °F 54.0 °F 96% 30.09 in 1.0 mi WSW 5.8 mph - N/A   Overcast
6:17 AM 55.0 °F 54.0 °F 96% 30.09 in 1.2 mi WSW 6.9 mph - N/A   Overcast
6:44 AM 55.0 °F 54.0 °F 96% 30.10 in 2.0 mi SW 4.6 mph - N/A   Overcast
6:56 AM 55.0 °F 54.0 °F 96% 30.10 in 2.5 mi SW 3.5 mph - N/A   Overcast
7:19 AM 55.9 °F 53.1 °F 90% 30.11 in 3.0 mi SW 3.5 mph - N/A   Overcast
7:31 AM 55.9 °F 53.1 °F 90% 30.12 in 3.0 mi SSW 4.6 mph - N/A   Overcast
7:56 AM 57.0 °F 54.0 °F 89% 30.12 in 3.0 mi SSW 4.6 mph - N/A   Overcast
8:21 AM 57.0 °F 54.0 °F 89% 30.13 in 4.0 mi SSW 5.8 mph - N/A   Overcast
8:56 AM 57.9 °F 54.0 °F 87% 30.14 in 5.0 mi South 6.9 mph - N/A   Mostly Cloudy
9:20 AM 57.9 °F 54.0 °F 87% 30.14 in 5.0 mi South 4.6 mph - N/A   Scattered Clouds
9:33 AM 59.0 °F 55.0 °F 87% 30.14 in 5.0 mi South 4.6 mph - N/A   Mostly Cloudy
9:54 AM 59.0 °F 55.4 °F 88% 30.14 in 6.0 mi South 5.8 mph - N/A   Scattered Clouds
9:56 AM 59.0 °F 55.0 °F 87% 30.14 in 6.0 mi SSE 5.8 mph - N/A   Scattered Clouds
10:56 AM 64.0 °F 55.9 °F 75% 30.15 in 9.0 mi SSW 6.9 mph - N/A   Clear
11:56 AM 68.0 °F 55.0 °F 63% 30.14 in 10.0 mi South 6.9 mph - N/A   Clear
12:56 PM 71.1 °F 53.1 °F 53% 30.12 in 10.0 mi South 8.1 mph - N/A   Mostly Cloudy
1:56 PM 71.1 °F 54.0 °F 55% 30.10 in 10.0 mi SSW 11.5 mph - N/A   Overcast
2:56 PM 68.0 °F 55.9 °F 65% 30.10 in 10.0 mi South 12.7 mph - N/A   Overcast
3:56 PM 71.1 °F 57.9 °F 63% 30.07 in 10.0 mi South 12.7 mph - N/A   Scattered Clouds
4:56 PM 73.9 °F 57.9 °F 57% 30.06 in 10.0 mi South 11.5 mph - N/A   Mostly Cloudy
5:56 PM 73.0 °F 57.9 °F 59% 30.07 in 10.0 mi SSW 11.5 mph - N/A   Overcast
6:56 PM 73.0 °F 60.1 °F 64% 30.05 in 10.0 mi South 6.9 mph - N/A   Scattered Clouds
7:56 PM 70.0 °F 60.1 °F 71% 30.05 in 9.0 mi SSE 5.8 mph - N/A   Partly Cloudy
8:56 PM 66.0 °F 59.0 °F 78% 30.05 in 10.0 mi SE 5.8 mph - N/A   Clear
9:56 PM 66.0 °F 60.1 °F 81% 30.07 in 8.0 mi Calm Calm - 0.01 in   Overcast
10:56 PM 66.0 °F 59.0 °F 78% 30.08 in 9.0 mi SSW 4.6 mph - N/A   Scattered Clouds
11:56 PM 64.9 °F 60.1 °F 84% 30.06 in 10.0 mi SSW 8.1 mph - N/A   Clear